SL-8 DEB, 45514

Orbit data source: Space-Track

SL-8 DEB, 45514 is space debris in LEO originally from a launch on Mon, 17 Mar 1980 UTC launched from the Plesetsk Missile And Space Complex (PKMTR). Debris objects in space refer to the collection of defunct objects orbiting the Earth. Examples of debris include non-operational satellites, rocket bodies, and fragments generated from explosions, collisions, or faulty payload assembly.

Loading next visibility...
Identifier
45514, 1980-022D
Orbit
LEO
Country
Flag of CISCIS
Related business
Manufacturer
Unknown
Mission
Spacecraft
Bus & Motor
Unknown
Mass
Unknown
Launch date (UTC)
1980-03-17 (46 years ago)
Launch vehicle
Unknown
Launch site
Plesetsk Missile And Space Complex (PKMTR)
Object type
Payload
Rocket body
Debris
Shape & HBR
Unknown shape, 0.1 m
Radar Cross Section
Small (<0.1 m²)

Expand to show TLE details & history
Last TLE update: 10 hours ago

TLE from 10 hours ago
0 SL-8 DEB
1 45514U 80022D   26066.63179970  .00000751  00000-0  69693-3 0  9992
2 45514  82.9413 303.4288 0030507 147.8918 212.4108 13.80757244598303
Epoch: 2026-03-07T15:09Z
TLE epoch observation values (Epoch: 2026-03-07T15:09:47.494Z)
Latitude
0.00003°
Longitude
-89.36976°
Altitude
983.035 km
Speed
7.351 km/s
True Right ascension
20h 13m 42s
True Declination
0° 00' 00"
Sunlit
Object was in daylight at epoch
Visualization orbit readout
Latitude
Unknown
Longitude
Unknown
Altitude
Unknown
Speed
Unknown
Apparent Right ascension
Unknown
Apparent Declination
Unknown
Sunlit
N/A
Visualization observer readout
Local Sidereal Time
04:58:50
Azimuth
Unknown
Elevation
Unknown
Doppler factor
Unknown
Orbital elements
Apogee altitude
980.724 km
Perigee altitude
935.962 km
Semi-major axis
7,336.48 km
Eccentricity
0.00305
Inclination
82.9413°
RAAN
303.4288°
Arg. of periapsis
147.8918°
True anomaly
212.22403°
Mean anomaly
212.4108°
Eccentric anomaly
212.31735°
Mean motion
3.45391 °/min
Orbital period
104.23 mins
BSTAR
0.00069693
Loading maneuver chart data...
Computing Atmospheric mass density...
Loading historical data...
Loading historical data...
Loading historical data...
Loading historical data...
Loading historical data...
Loading historical data...
Loading historical data...
Other satellites on launch #22 in the year 1980 (1980-03-17 UTC)

Documentation

Showing up to 5 results
|